• In Kazakhstan
  • List of Countries
  • For 7 days
  • Water Temperature
  • Satellite Maps
  • Weather Map
  • News
  • Weather Widgets
  • user-avatar
    Login

    Hourly Weather Koniusza

    Today, 21 April, Sunday

    Time Temperature Precipitation Wind Pressure Humidity
    00:00 +9°C° 0 mm 1 mps 730 mmHg 69%
    01:00 +8°C° 0 mm 1 mps 730 mmHg 71%
    02:00 +7°C° 0 mm 1 mps 729 mmHg 74%
    03:00 +7°C° 0 mm 1 mps 729 mmHg 74%
    04:00 +7°C° 0 mm 1 mps 729 mmHg 75%
    05:00 +7°C° 0 mm 1 mps 729 mmHg 76%
    06:00 +7°C° 0 mm 2 mps 729 mmHg 73%
    07:00 +8°C° 0 mm 2 mps 729 mmHg 71%
    08:00 +9°C° 0 mm 2 mps 729 mmHg 69%
    09:00 +10°C° 0 mm 3 mps 729 mmHg 66%
    10:00 +11°C° 0 mm 3 mps 729 mmHg 63%
    11:00 +13°C° 0 mm 3 mps 729 mmHg 59%
    12:00 +13°C° 0.4 mm 4 mps 728 mmHg 59%
    13:00 +13°C° 0.4 mm 4 mps 728 mmHg 59%
    14:00 +14°C° 0.4 mm 4 mps 728 mmHg 58%
    15:00 +13°C° 0.8 mm 4 mps 727 mmHg 62%
    16:00 +13°C° 0.8 mm 4 mps 727 mmHg 65%
    17:00 +12°C° 0.8 mm 4 mps 727 mmHg 68%
    18:00 +11°C° 0.5 mm 3 mps 727 mmHg 74%
    19:00 +9°C° 0.5 mm 2 mps 726 mmHg 79%
    20:00 +9°C° 0.5 mm 1 mps 726 mmHg 84%
    21:00 +8°C° 0 mm 1 mps 726 mmHg 85%
    22:00 +7°C° 0 mm 2 mps 726 mmHg 86%
    23:00 +6°C° 0 mm 2 mps 726 mmHg 86%

    Tomorrow, 22 April, Monday

    Time Temperature Precipitation Wind Pressure Humidity
    00:00 +6°C° 0.2 mm 2 mps 726 mmHg 86%
    01:00 +6°C° 0.2 mm 2 mps 726 mmHg 85%
    02:00 +7°C° 0.2 mm 1 mps 725 mmHg 84%
    03:00 +7°C° 0.2 mm 1 mps 725 mmHg 84%
    04:00 +7°C° 0.2 mm 1 mps 725 mmHg 84%
    05:00 +7°C° 0.2 mm 1 mps 725 mmHg 84%
    06:00 +8°C° 0.2 mm 1 mps 725 mmHg 83%
    07:00 +8°C° 0.2 mm 2 mps 726 mmHg 81%
    08:00 +8°C° 0.2 mm 2 mps 726 mmHg 80%
    09:00 +10°C° 0 mm 3 mps 726 mmHg 74%
    10:00 +11°C° 0 mm 4 mps 726 mmHg 68%
    11:00 +13°C° 0 mm 5 mps 727 mmHg 62%
    12:00 +13°C° 0.1 mm 6 mps 727 mmHg 62%
    13:00 +13°C° 0.1 mm 6 mps 727 mmHg 62%
    14:00 +12°C° 0.1 mm 7 mps 727 mmHg 61%
    15:00 +12°C° 0 mm 7 mps 727 mmHg 62%
    16:00 +12°C° 0 mm 7 mps 726 mmHg 62%
    17:00 +11°C° 0 mm 8 mps 726 mmHg 62%
    18:00 +10°C° 0 mm 7 mps 726 mmHg 63%
    19:00 +8°C° 0 mm 7 mps 727 mmHg 65%
    20:00 +6°C° 0 mm 7 mps 727 mmHg 66%
    21:00 +5°C° 0 mm 7 mps 727 mmHg 66%
    22:00 +5°C° 0 mm 6 mps 727 mmHg 66%
    23:00 +4°C° 0 mm 6 mps 727 mmHg 65%

    Day after tomorrow, 23 April, Tuesday

    Time Temperature Precipitation Wind Pressure Humidity
    00:00 +4°C° 0 mm 6 mps 727 mmHg 66%
    01:00 +5°C° 0 mm 5 mps 727 mmHg 67%
    02:00 +3°C° 0 mm 5 mps 727 mmHg 68%
    03:00 +3°C° 0 mm 5 mps 727 mmHg 69%
    04:00 +3°C° 0 mm 5 mps 727 mmHg 71%
    05:00 +4°C° 0 mm 4 mps 727 mmHg 72%
    06:00 +5°C° 0 mm 5 mps 727 mmHg 71%
    07:00 +6°C° 0 mm 5 mps 727 mmHg 70%
    08:00 +5°C° 0 mm 6 mps 727 mmHg 69%
    09:00 +8°C° 0 mm 6 mps 727 mmHg 64%
    10:00 +10°C° 0 mm 6 mps 727 mmHg 59%
    11:00 +13°C° 0 mm 6 mps 727 mmHg 55%
    12:00 +13°C° 0 mm 6 mps 727 mmHg 54%
    13:00 +14°C° 0 mm 6 mps 727 mmHg 54%
    14:00 +15°C° 0 mm 6 mps 727 mmHg 54%
    15:00 +15°C° 0.1 mm 6 mps 727 mmHg 55%
    16:00 +14°C° 0.1 mm 6 mps 727 mmHg 56%
    17:00 +14°C° 0.1 mm 6 mps 727 mmHg 57%
    18:00 +13°C° 0 mm 5 mps 727 mmHg 59%
    19:00 +12°C° 0 mm 5 mps 726 mmHg 60%
    20:00 +9°C° 0 mm 5 mps 726 mmHg 61%
    21:00 +9°C° 0 mm 5 mps 726 mmHg 64%
    22:00 +8°C° 0 mm 4 mps 726 mmHg 68%
    23:00 +7°C° 0 mm 4 mps 726 mmHg 72%

    24 April, Wednesday

    Time Temperature Precipitation Wind Pressure Humidity
    00:00 +8°C° 0 mm 3 mps 726 mmHg 72%
    01:00 +8°C° 0 mm 3 mps 726 mmHg 72%
    02:00 +8°C° 0 mm 3 mps 726 mmHg 72%
    03:00 +8°C° 0.4 mm 3 mps 726 mmHg 76%
    04:00 +7°C° 0.4 mm 3 mps 726 mmHg 81%
    05:00 +7°C° 0.4 mm 3 mps 726 mmHg 86%
    06:00 +7°C° 0 mm 4 mps 727 mmHg 83%
    07:00 +8°C° 0 mm 4 mps 727 mmHg 81%
    08:00 +10°C° 0 mm 4 mps 727 mmHg 79%
    09:00 +12°C° 0 mm 5 mps 728 mmHg 72%
    10:00 +14°C° 0 mm 5 mps 728 mmHg 66%
    11:00 +16°C° 0 mm 5 mps 728 mmHg 59%
    12:00 +17°C° 0 mm 5 mps 728 mmHg 57%
    13:00 +19°C° 0 mm 5 mps 728 mmHg 55%
    14:00 +20°C° 0 mm 5 mps 728 mmHg 53%
    15:00 +20°C° 0.4 mm 4 mps 728 mmHg 56%
    16:00 +19°C° 0.4 mm 4 mps 728 mmHg 59%
    17:00 +19°C° 0.4 mm 4 mps 728 mmHg 62%
    18:00 +17°C° 0.3 mm 3 mps 728 mmHg 69%
    19:00 +16°C° 0.3 mm 2 mps 727 mmHg 76%
    20:00 +14°C° 0.3 mm 2 mps 727 mmHg 83%
    21:00 +13°C° 0 mm 2 mps 727 mmHg 85%
    22:00 +13°C° 0 mm 2 mps 727 mmHg 87%
    23:00 +12°C° 0 mm 2 mps 727 mmHg 89%

    25 April, Thursday

    Time Temperature Precipitation Wind Pressure Humidity
    00:00 +12°C° 0.6 mm 2 mps 727 mmHg 89%
    01:00 +11°C° 0.6 mm 3 mps 728 mmHg 89%
    02:00 +12°C° 0.6 mm 3 mps 728 mmHg 89%
    03:00 +11°C° 0.1 mm 3 mps 728 mmHg 89%
    04:00 +11°C° 0.1 mm 3 mps 727 mmHg 89%
    05:00 +12°C° 0.1 mm 2 mps 727 mmHg 89%
    06:00 +12°C° 0.1 mm 3 mps 728 mmHg 84%
    07:00 +13°C° 0.1 mm 3 mps 728 mmHg 79%
    08:00 +14°C° 0.1 mm 4 mps 728 mmHg 75%
    09:00 +17°C° 0 mm 4 mps 728 mmHg 68%
    10:00 +19°C° 0 mm 5 mps 728 mmHg 61%
    11:00 +21°C° 0 mm 5 mps 728 mmHg 54%
    12:00 +21°C° 0 mm 6 mps 728 mmHg 52%
    13:00 +22°C° 0 mm 6 mps 728 mmHg 50%
    14:00 +23°C° 0 mm 6 mps 728 mmHg 47%
    15:00 +22°C° 0 mm 5 mps 727 mmHg 51%
    16:00 +22°C° 0 mm 5 mps 727 mmHg 54%
    17:00 +22°C° 0 mm 5 mps 727 mmHg 58%
    18:00 +20°C° 0 mm 4 mps 727 mmHg 64%
    19:00 +18°C° 0 mm 3 mps 726 mmHg 71%
    20:00 +17°C° 0 mm 3 mps 726 mmHg 77%
    21:00 +16°C° 0 mm 3 mps 726 mmHg 78%
    22:00 +16°C° 0 mm 3 mps 727 mmHg 79%
    23:00 +14°C° 0 mm 3 mps 727 mmHg 80%

    26 April, Friday

    Time Temperature Precipitation Wind Pressure Humidity
    00:00 +14°C° 0 mm 3 mps 727 mmHg 82%
    01:00 +14°C° 0 mm 3 mps 726 mmHg 84%
    02:00 +15°C° 0 mm 2 mps 726 mmHg 86%
    03:00 +13°C° 0 mm 3 mps 726 mmHg 87%
    04:00 +13°C° 0 mm 3 mps 726 mmHg 88%
    05:00 +13°C° 0 mm 3 mps 726 mmHg 89%
    06:00 +14°C° 0 mm 3 mps 726 mmHg 82%
    07:00 +17°C° 0 mm 4 mps 726 mmHg 76%
    08:00 +18°C° 0 mm 4 mps 726 mmHg 70%
    09:00 +20°C° 0 mm 4 mps 726 mmHg 65%
    10:00 +21°C° 0 mm 4 mps 726 mmHg 60%
    11:00 +22°C° 0 mm 5 mps 726 mmHg 55%
    12:00 +23°C° 0 mm 5 mps 725 mmHg 52%
    13:00 +25°C° 0 mm 5 mps 725 mmHg 49%
    14:00 +25°C° 0 mm 5 mps 725 mmHg 46%
    15:00 +25°C° 0 mm 4 mps 725 mmHg 48%
    16:00 +25°C° 0 mm 4 mps 724 mmHg 51%
    17:00 +25°C° 0 mm 3 mps 724 mmHg 53%
    18:00 +22°C° 0 mm 3 mps 724 mmHg 61%
    19:00 +20°C° 0 mm 3 mps 724 mmHg 68%
    20:00 +18°C° 0 mm 2 mps 723 mmHg 75%
    21:00 +17°C° 0 mm 2 mps 723 mmHg 77%
    22:00 +17°C° 0 mm 2 mps 723 mmHg 80%
    23:00 +16°C° 0 mm 2 mps 723 mmHg 82%
    Show more